CAPE
0 0 0 0 0 0 0 0 0 0 0 0 0 0 0 0 0 0 0 0 0 0 91 731 658 157 3 0 0 0 0 0 0 0 0 0 0 1 3 46 40 13 26 79 30 52 84 95 128
0 0 0 0 0 0 0 0 0 0 0 0 0 0 0 0 0 0 0 0 0 0 78 183 473 259 45 4 0 0 0 0 0 0 0 0 0 2 5 2 74 95 94 101 36 55 124 145 124
0 0 0 0 0 0 0 0 0 0 0 0 0 0 0 0 0 0 0 0 0 0 84 78 781 734 322 95 0 0 0 0 0 0 0 0 0 0 10 10 6 112 140 138 154 172 154 140 184
0 0 0 0 0 0 0 0 0 0 0 0 0 0 0 0 0 0 0 0 0 0 0 121 1328 869 389 149 16 0 0 0 0 0 0 0 14 0 1 28 14 11 132 193 239 297 284 189 291
0 0 0 0 0 0 0 0 0 0 0 0 0 0 0 0 0 0 0 0 0 0 0 237 1476 764 516 264 60 39 5 0 62 58 68 47 45 39 7 55 77 16 250 304 319 375 390 308 385
0 0 0 0 0 0 0 0 0 0 0 0 0 0 0 0 0 0 0 0 0 0 0 0 236 1159 615 84 126 158 181 108 99 105 112 99 85 73 65 77 157 19 341 447 379 470 689 669 696
0 0 0 0 0 0 0 0 0 0 0 0 0 0 0 0 0 0 0 0 0 0 0 0 0 0 2 46 144 116 170 111 102 102 130 94 113 106 82 106 156 196 357 560 511 621 823 844 767
0 0 0 0 0 0 0 0 0 0 0 0 0 0 0 0 0 0 0 0 0 0 0 0 0 0 0 0 21 6 19 28 48 59 56 72 70 99 92 117 195 355 559 709 692 744 883 978 956
0 0 0 0 0 0 0 0 0 0 0 0 0 0 0 0 0 0 0 0 0 0 0 0 0 0 0 0 0 0 0 3 3 1 10 49 0 0 41 148 281 542 642 827 898 791 935 1018 860
0 0 0 0 0 0 0 0 0 0 0 0 0 0 0 0 0 0 0 0 0 0 0 0 0 0 0 0 0 0 0 0 0 0 0 0 0 0 34 131 285 464 670 777 1047 910 928 859 635
0 0 0 0 0 0 0 0 0 0 0 0 0 0 0 0 0 0 0 0 0 0 0 0 0 0 0 0 0 0 0 0 1 0 1 0 0 0 0 15 44 88 472 593 738 674 650 708 272
0 0 0 0 0 0 0 0 0 0 0 0 0 0 0 0 0 0 0 0 0 0 0 0 0 0 0 0 0 0 0 4 1 0 0 0 0 0 0 0 8 148 305 355 596 657 677 344 380
0 0 0 0 0 0 0 0 0 0 0 0 0 0 0 0 0 0 0 0 0 0 0 0 0 0 0 0 0 0 0 0 0 0 0 0 0 0 0 0 11 127 225 346 649 875 694 412 304
0 0 0 0 0 0 0 0 0 0 0 0 0 0 0 0 0 0 0 0 0 0 0 0 0 0 0 0 0 0 0 1 0 0 0 0 0 0 0 0 21 102 82 338 694 811 501 376 324
0 0 0 0 0 0 0 0 0 0 0 0 0 0 0 0 0 0 0 0 0 0 0 0 0 0 0 0 0 0 0 0 0 0 0 0 0 0 0 16 114 81 174 482 504 437 248 170 124
0 0 0 0 0 0 0 0 0 0 0 0 0 0 0 0 0 0 0 0 0 0 0 0 0 0 0 0 0 0 0 0 0 0 0 10 48 57 47 51 124 333 270 381 400 323 188 149 83
0 0 0 0 0 0 0 0 0 0 0 0 0 0 0 0 0 0 0 0 0 0 0 0 0 0 0 0 0 0 0 0 0 3 2 38 84 210 185 107 259 219 243 277 260 230 192 119 20
0 0 0 0 0 0 0 0 0 0 0 0 0 0 0 0 0 0 0 0 0 0 0 0 0 0 0 0 0 0 0 0 0 20 33 56 136 125 156 6 220 126 138 90 95 85 83 176 17
0 0 0 0 0 0 0 0 0 0 0 0 0 0 0 0 0 0 0 0 0 0 0 0 0 0 0 0 0 0 0 0 0 22 22 33 22 117 123 82 148 28 41 38 82 40 23 31 9
0 0 0 0 0 0 0 0 0 0 0 0 0 0 0 0 0 0 0 0 0 0 0 0 0 0 0 0 0 0 0 0 0 0 1 1 56 82 87 101 106 111 46 34 10 15 6 12 8
0 0 0 0 0 0 0 0 0 0 0 0 0 0 0 0 0 0 0 0 0 0 0 0 0 0 0 0 0 0 0 0 4 1 2 25 52 66 84 53 107 130 116 89 45 37 4 0 1
0 0 0 0 0 0 0 0 0 0 0 0 0 0 0 0 0 0 0 0 0 0 0 0 0 0 0 0 0 0 0 0 0 0 13 41 102 108 122 102 42 37 113 125 101 47 46 16 3
0 0 0 0 0 0 0 0 0 0 0 0 0 0 0 0 0 0 0 0 0 0 0 0 0 0 0 0 0 0 0 0 0 0 13 1 20 33 39 45 51 50 53 142 128 53 75 10 4
0 0 0 0 0 0 0 0 0 0 0 0 0 0 0 0 0 0 0 0 0 0 0 0 0 0 0 0 0 0 0 0 0 0 0 0 0 0 37 51 19 11 38 108 80 51 96 23 9
0 0 0 0 0 0 0 0 0 0 0 0 0 0 0 0 0 0 0 0 0 0 0 0 0 0 0 0 0 0 0 0 0 0 0 0 0 0 8 11 26 43 25 33 38 34 16 6 9
0 0 0 0 0 0 5 0 0 0 0 0 0 0 0 0 0 0 0 0 0 0 0 0 0 0 0 0 0 0 0 0 0 0 0 0 0 0 0 0 0 0 1 2 0 0 0 0 0
0 0 0 0 0 0 0 11 6 0 0 0 0 0 0 0 0 0 0 0 0 0 0 0 0 0 0 0 0 0 0 0 0 0 0 0 0 0 0 0 0 0 0 0 0 0 0 0 0
0 0 0 0 0 0 0 287 8 0 0 0 0 0 0 0 0 0 0 0 0 0 0 0 0 0 0 0 0 0 0 0 0 0 0 0 0 0 0 0 0 0 0 0 0 0 0 0 0
102 87 28 0 0 0 0 33 208 44 1 0 0 0 0 0 0 0 0 0 0 0 0 0 0 0 0 0 0 0 0 0 0 0 0 0 0 0 0 0 0 0 0 0 0 0 0 0 0
141 164 43 23 1 0 7 32 309 83 0 0 0 0 0 0 0 0 0 0 0 0 0 0 0 0 0 0 0 0 0 0 0 0 0 0 0 0 0 0 0 0 0 0 0 0 0 0 0
CIN
0 0 0 0 0 0 0 0 0 0 0 0 0 0 0 0 0 0 0 0 0 0 -200 -46 -24 -67 -36 0 0 0 0 0 0 0 0 0 0 0 0 0 -1 0 -1 -41 -9 -14 -14 -21 -11
0 0 0 0 0 0 0 0 0 0 0 0 0 0 0 0 0 0 0 0 0 0 -234 -144 -48 -57 -160 -114 0 0 0 0 0 0 0 0 0 0 0 0 -21 -57 -52 -38 -7 -4 -7 -10 -21
0 0 0 0 0 0 0 0 0 0 0 0 0 0 0 0 0 0 0 0 0 0 -292 -210 -38 -37 -38 -71 0 0 0 0 0 0 0 0 0 0 0 0 0 -54 -20 -22 -9 0 -1 -3 -11
0 0 0 0 0 0 0 0 0 0 0 0 0 0 0 0 0 0 0 0 0 0 -8 -196 -23 -24 -24 -49 -14 0 0 0 0 0 0 0 -5 0 0 0 0 0 -21 0 0 0 0 -1 -6
0 0 0 0 0 0 0 0 0 0 0 0 0 0 0 0 0 0 0 0 0 0 0 -106 -18 -21 -16 -32 -11 -10 -3 0 -1 0 0 0 0 0 0 -1 0 0 -5 0 0 0 0 -1 -1
0 0 0 0 0 0 0 0 0 0 0 0 0 0 0 0 0 0 0 0 0 0 0 0 -11 -1 -7 -11 -14 -10 -1 0 0 -1 -1 0 -1 -1 0 0 0 0 0 0 -1 0 0 0 0
0 0 0 0 0 0 0 0 0 0 0 0 0 0 0 0 0 0 0 0 0 0 0 0 0 0 -7 -5 -3 -3 -8 -1 0 0 0 0 -1 -1 0 0 0 -2 0 0 0 0 0 0 0
0 0 0 0 0 0 0 0 0 0 0 0 0 0 0 0 0 0 0 0 0 0 0 0 0 0 0 0 -31 -38 -31 -29 -9 -3 -2 -1 -1 0 0 0 -8 0 0 0 0 0 0 0 0
0 0 0 0 0 0 0 0 0 0 0 0 0 0 0 0 0 0 0 0 0 0 0 0 0 0 0 0 0 0 0 -58 -38 -48 -31 -10 0 0 -30 -18 -5 0 0 0 0 0 0 0 0
0 0 0 0 0 0 0 0 0 0 0 0 0 0 0 0 0 0 0 0 0 0 0 0 0 0 0 0 0 0 0 0 0 -12 0 0 0 0 -26 -5 0 0 0 0 0 -1 0 -1 -7
0 0 0 0 0 0 0 0 0 0 0 0 0 0 0 0 0 0 0 0 0 0 0 0 0 0 0 0 0 0 0 0 -26 -6 -4 0 0 0 0 -67 -34 -38 -5 -15 -6 -8 -13 -14 -40
0 0 0 0 0 0 0 0 0 0 0 0 0 0 0 0 0 0 0 0 0 0 0 0 0 0 0 0 0 0 0 -32 -3 0 0 0 0 0 0 0 -80 -47 -45 -51 -37 -27 -14 -39 -32
0 0 0 0 0 0 0 0 0 0 0 0 0 0 0 0 0 0 0 0 0 0 0 0 0 0 0 0 0 0 0 -5 0 0 0 0 0 0 0 0 -49 -71 -67 -59 -35 -5 0 -16 -26
0 0 0 0 0 0 0 0 0 0 0 0 0 0 0 0 0 0 0 0 0 0 0 0 0 0 0 0 0 0 0 0 0 0 0 0 0 0 0 0 -129 -84 -116 -60 -20 -1 -2 -12 -11
0 0 0 0 0 0 0 0 0 0 0 0 0 0 0 0 0 0 0 0 0 0 0 0 0 0 0 0 0 0 0 0 0 0 0 0 0 0 0 -141 -102 -121 -87 -19 -2 -1 -14 -25 -41
0 0 0 0 0 0 0 0 0 0 0 0 0 0 0 0 0 0 0 0 0 0 0 0 0 0 0 0 0 0 0 0 0 0 0 -130 -112 -115 -122 -138 -85 -55 -42 -2 -3 -7 -19 -38 -37
0 0 0 0 0 0 0 0 0 0 0 0 0 0 0 0 0 0 0 0 0 0 0 0 0 -38 0 0 0 0 0 0 0 -44 -72 -136 -102 -64 -60 -95 -11 -18 0 -11 -15 -14 -12 -22 -45
0 0 0 0 0 0 0 0 0 0 0 0 0 0 0 0 0 0 0 0 0 0 0 0 0 0 0 0 0 0 0 0 0 -120 -111 -108 -66 -34 -43 -32 -1 -2 -16 -60 -76 -88 -19 -38 -42
0 0 0 0 0 0 0 0 0 0 0 0 0 0 0 0 0 0 0 0 0 0 0 0 0 0 0 0 0 0 0 0 0 -85 -81 -96 -76 -35 -13 -14 -8 -11 -70 -79 -84 -57 -54 -37 -30
0 0 0 0 0 0 0 0 0 0 0 0 0 0 0 0 0 0 0 0 0 0 0 0 0 0 0 0 0 0 0 0 0 0 -29 -23 -85 -45 -34 -45 -11 -26 -57 -75 -54 -36 -26 -7 -19
0 0 0 0 0 0 0 0 0 0 0 0 0 0 0 0 0 0 0 0 0 0 0 0 0 0 0 0 0 0 0 0 -81 -69 -89 -74 -38 -46 -55 -100 -79 -55 -65 -71 -63 -37 -36 -25 -23
0 0 0 0 0 0 0 0 0 0 0 0 0 0 0 0 0 0 0 0 0 0 0 0 0 0 0 0 0 0 0 0 0 0 -64 -47 -56 -64 -49 -60 -69 -78 -66 -70 -65 -81 -93 -102 -55
0 0 0 0 0 0 0 0 0 0 0 0 0 0 0 0 0 0 0 0 0 0 0 0 0 0 0 0 0 0 0 0 0 0 -145 -98 -61 -8 -61 -98 -104 -103 -103 -60 -58 -100 -97 -150 -196
0 0 0 0 0 0 0 0 0 0 0 0 0 0 0 0 0 0 0 0 0 0 0 0 0 0 0 0 0 0 0 0 0 0 0 0 0 0 -105 -83 -116 -130 -125 -105 -100 -145 -171 -234 -233
0 0 0 0 0 0 0 0 0 0 0 0 0 0 0 0 0 0 0 0 0 0 0 0 0 0 0 0 0 0 0 0 0 0 0 0 0 0 -153 -126 -98 -126 -150 -156 -164 -183 -169 -92 -201
0 0 0 0 0 0 -136 0 0 0 0 0 0 0 0 0 0 0 0 0 0 0 0 0 0 0 0 0 0 0 0 0 0 0 0 0 0 0 0 -22 0 0 -186 -225 -11 0 -28 0 0
0 0 0 0 0 0 0 -86 -83 0 0 0 0 0 0 0 0 0 0 0 0 0 0 0 0 0 0 0 0 0 0 0 0 0 0 0 0 0 0 0 0 0 0 0 0 0 0 0 0
0 0 0 0 0 0 0 -40 -51 0 0 0 0 0 0 0 0 0 0 0 0 0 0 0 0 0 0 0 0 0 0 0 0 0 0 0 0 0 0 0 0 0 0 0 0 0 0 0 0
-58 -109 -202 0 0 0 0 -107 -208 -231 -76 0 0 0 0 0 0 0 0 0 0 0 0 0 0 0 0 0 0 0 0 0 0 0 0 0 0 0 0 0 0 0 0 0 0 0 0 0 0
-183 -254 -238 -177 -80 -22 -78 -20 -167 -224 0 0 0 0 0 0 0 0 0 0 0 0 0 0 0 0 0 0 0 0 0 0 0 0 0 0 0 0 0 0 0 0 0 0 0 0 0 0 0
Wind_Speed
6 4 2 3 4 5 1 1 4 2 1 2 2 7 6 2 2 5 4 2 7 7 7 11 12 12 11 11 9 9 8 6 5 6 7 7 7 6 6 9 10 11 10 10 10 9 7 6 6
4 2 3 2 4 4 5 3 7 7 5 2 8 6 3 1 4 4 1 2 7 10 7 7 14 14 15 13 10 9 8 7 7 7 6 5 7 8 9 8 10 12 11 11 12 10 9 7 7
3 1 3 4 3 5 6 5 6 5 5 4 2 2 5 2 3 4 4 2 4 7 10 10 17 16 15 11 10 9 9 9 9 8 7 7 7 7 10 11 11 13 14 13 13 12 10 9 8
4 3 4 3 4 3 7 7 8 6 2 2 5 6 5 5 3 5 6 2 4 8 11 13 15 13 11 11 10 9 10 11 11 11 11 10 9 9 10 13 14 13 16 14 14 13 11 10 8
1 3 1 3 5 4 4 5 10 7 7 4 6 3 3 1 7 8 7 5 4 5 5 7 13 12 10 9 10 11 13 14 13 12 12 12 12 12 13 13 16 15 16 16 15 14 13 11 9
3 3 2 3 3 3 3 5 7 6 5 5 7 6 3 3 5 6 3 7 7 7 4 4 2 9 9 10 12 14 14 15 13 15 14 13 13 13 16 15 16 16 16 17 16 15 13 10 8
6 4 6 8 8 2 5 2 3 5 4 2 8 5 4 2 3 5 7 8 6 6 7 3 2 5 7 8 11 7 9 12 9 11 14 15 14 15 16 16 15 17 17 16 16 15 13 11 8
5 4 5 5 4 3 3 3 6 9 2 3 5 6 4 3 3 7 8 7 7 5 2 3 4 5 6 6 7 7 7 6 10 14 15 15 14 15 16 16 14 14 18 17 18 16 14 12 9
4 1 3 3 5 4 4 4 0 1 7 4 3 5 8 6 6 9 7 7 6 4 3 2 5 5 4 2 4 6 7 6 7 8 10 9 3 4 9 11 12 14 17 17 16 14 14 12 10
4 2 7 5 7 7 8 7 6 4 6 5 6 7 7 7 8 9 7 6 6 6 6 5 4 4 4 3 3 3 3 3 3 3 4 4 5 5 6 10 13 14 15 15 14 14 14 10 3
4 6 5 5 6 9 6 5 5 9 3 3 6 7 4 7 8 9 5 3 4 5 4 3 2 2 3 4 3 2 2 2 2 3 2 3 3 3 3 3 3 3 10 3 7 6 3 6 5
8 6 6 4 5 5 5 6 4 3 6 9 7 8 6 9 8 7 6 6 7 6 3 1 2 2 3 2 2 3 3 2 2 3 4 1 1 2 3 3 4 3 2 4 4 3 5 7 9
5 5 6 6 8 5 7 3 7 7 9 8 10 8 9 8 7 5 4 5 6 5 5 5 3 3 3 3 3 3 3 2 3 3 4 2 2 1 2 3 4 4 3 4 4 7 7 9 10
5 7 9 5 6 6 5 3 6 5 8 8 10 9 8 9 7 4 4 5 5 4 5 3 4 4 4 2 3 4 3 3 3 3 3 3 2 3 3 3 4 4 4 3 4 8 8 9 10
6 6 3 6 7 5 5 0 5 9 9 9 9 8 8 8 7 6 3 5 4 2 3 4 2 4 3 3 4 4 4 2 2 2 4 5 4 4 4 3 3 2 4 9 8 10 9 9 9
4 6 3 6 7 2 9 9 7 10 10 9 10 8 8 6 7 5 6 5 3 1 3 4 3 3 3 4 4 4 4 3 3 2 3 4 5 4 1 2 4 5 9 6 9 10 9 10 10
4 4 6 4 8 6 5 7 5 10 9 9 10 8 8 6 5 5 6 6 3 0 1 3 5 3 2 3 3 4 5 3 2 1 2 3 2 5 5 5 8 11 6 6 9 9 10 10 10
6 5 5 6 6 6 6 8 8 10 10 10 10 8 8 7 6 5 7 6 4 1 2 0 4 2 1 2 3 3 3 3 3 3 3 4 5 10 3 5 8 8 6 6 8 11 8 10 11
6 6 9 4 6 7 11 7 13 11 7 10 8 9 8 8 7 5 6 5 4 1 3 4 4 3 3 2 2 3 3 3 3 4 5 5 11 7 3 5 7 5 7 8 9 9 12 9 11
7 9 12 7 8 8 8 13 9 11 13 14 13 9 10 6 6 5 6 4 3 1 0 3 3 2 2 1 2 1 1 2 2 3 5 6 10 7 5 9 7 8 8 9 8 9 7 8 5
7 8 11 6 1 6 4 6 5 7 2 9 8 9 8 11 9 7 7 5 4 2 2 2 2 2 1 4 3 2 2 3 4 4 4 5 7 4 3 5 7 7 6 6 8 7 9 6 5
9 8 14 6 7 7 5 6 5 6 8 11 11 10 10 9 6 7 7 5 4 5 2 4 3 2 1 3 4 4 2 2 2 2 4 6 8 5 2 3 6 6 5 7 4 4 4 9 5
11 7 8 7 7 4 3 4 7 7 5 9 11 12 10 10 10 10 9 8 6 7 5 3 3 1 3 4 4 4 4 2 3 4 6 7 5 6 4 4 5 5 3 7 8 5 5 3 3
8 4 6 6 4 1 7 5 5 7 16 7 10 12 13 10 9 9 8 7 6 3 6 4 5 3 5 6 7 7 6 4 4 5 4 3 3 3 4 8 6 5 4 5 7 5 5 4 4
5 7 2 5 5 7 1 3 11 12 10 18 19 15 13 12 9 9 9 7 6 6 7 5 5 2 5 7 8 7 6 6 6 5 4 5 3 5 4 5 6 5 5 5 5 5 5 5 4
7 10 8 8 4 10 6 5 9 6 13 16 19 17 13 10 9 11 10 8 8 8 7 6 6 4 6 7 6 6 7 4 4 5 4 4 3 3 7 5 3 5 6 6 6 4 4 6 5
5 4 10 6 3 1 4 6 7 2 9 12 14 15 15 12 12 12 9 8 8 8 8 8 7 5 6 7 6 6 6 7 5 5 4 3 4 4 7 7 6 6 6 6 8 6 6 6 5
12 6 3 3 5 5 5 4 7 3 9 10 13 17 14 10 12 10 9 8 6 7 6 7 8 8 7 6 6 5 6 6 6 6 5 6 5 6 7 7 7 7 7 8 9 8 7 10 5
1 3 5 4 6 3 3 7 8 12 14 18 17 17 17 15 14 11 9 8 8 6 7 8 7 8 6 6 5 6 5 6 6 6 4 4 5 7 7 7 7 7 8 8 11 10 11 11 9
2 8 8 6 4 2 4 9 6 8 9 15 18 17 16 16 14 11 11 9 8 8 7 8 7 8 7 6 6 6 6 5 6 5 5 4 5 5 6 6 7 7 7 8 10 10 8 10 9
Wind_Direction
145 166 103 51 48 64 349 8 149 158 56 187 183 116 134 93 128 207 246 258 143 166 183 190 181 184 188 186 189 191 207 219 241 266 278 272 267 264 273 270 254 251 254 256 250 256 261 276 261
158 129 31 73 93 92 276 213 158 178 194 104 118 121 66 91 94 110 93 308 111 181 180 174 187 193 198 200 199 210 218 227 236 251 256 273 276 271 264 263 264 251 245 248 245 241 248 254 254
157 155 85 110 126 184 187 219 177 193 154 130 121 81 104 125 72 121 225 203 40 143 171 186 195 200 207 208 214 226 228 230 234 234 228 257 271 285 283 261 261 254 245 236 241 240 235 241 254
146 32 11 101 220 246 174 190 174 148 326 201 121 77 52 314 101 163 211 211 239 172 178 193 197 206 216 219 227 240 246 238 233 231 236 242 256 268 280 279 251 258 245 231 234 231 230 234 249
40 87 54 249 228 174 225 199 152 163 174 164 122 105 101 309 159 182 215 235 269 102 181 216 201 211 222 238 250 254 255 247 238 237 240 249 258 266 274 277 254 246 248 233 228 222 225 224 241
27 90 48 257 225 184 232 207 128 147 156 148 89 115 165 225 164 223 16 62 99 123 107 74 116 214 231 248 253 255 253 247 245 251 246 256 260 272 275 269 251 243 246 229 224 220 217 218 222
148 93 233 247 160 150 216 195 132 125 109 92 137 113 170 186 161 93 72 74 79 67 102 146 68 356 332 307 290 303 313 243 262 263 250 253 257 265 265 263 249 246 238 220 220 215 215 212 220
123 107 317 14 146 207 226 175 134 132 151 132 112 161 167 182 139 86 61 48 55 66 69 40 43 49 38 25 46 13 353 319 286 274 263 264 254 251 260 257 248 252 223 209 213 213 210 213 204
102 168 258 154 141 209 190 155 168 152 126 47 78 128 126 153 81 58 38 17 17 3 344 60 58 37 360 101 19 16 349 340 308 288 278 256 274 271 260 253 243 242 221 209 208 209 212 207 200
118 110 181 199 166 180 190 159 157 132 82 72 73 65 86 80 72 69 57 22 9 338 350 63 52 28 10 31 20 346 322 287 287 275 265 262 250 241 239 238 247 234 215 207 208 212 212 199 168
266 189 219 172 160 151 140 152 172 122 87 156 158 140 118 89 69 69 51 14 330 306 19 34 45 24 23 22 4 321 302 286 298 300 270 252 247 235 252 269 264 247 211 189 200 199 181 131 151
218 195 160 185 77 124 155 151 92 113 168 161 151 142 121 89 82 83 53 4 345 2 17 352 2 354 22 25 336 299 284 286 288 282 287 311 257 238 251 244 236 219 191 185 173 147 127 126 133
106 142 115 129 107 118 103 122 139 139 153 158 114 109 109 105 107 91 55 2 7 25 350 349 326 16 354 1 309 284 284 304 300 306 303 299 355 295 266 264 224 211 173 165 146 134 127 123 122
150 136 152 152 147 158 129 181 106 229 162 145 129 122 123 119 125 98 45 13 23 20 352 343 21 33 20 348 314 315 316 300 283 287 290 308 297 266 295 255 210 212 159 149 126 134 117 116 117
155 122 159 186 171 178 125 197 204 174 171 152 147 133 122 127 118 127 100 67 62 349 314 1 87 51 32 345 324 329 312 308 281 298 299 283 261 263 283 246 194 156 143 106 118 110 117 108 99
163 88 162 257 150 183 112 257 221 183 165 157 155 142 130 148 126 141 109 111 96 18 8 343 22 59 19 8 342 344 340 14 11 342 286 271 270 248 5 140 112 64 113 123 120 126 117 106 113
345 223 230 292 191 141 142 247 232 180 167 159 160 151 145 143 123 107 121 133 149 258 351 4 28 75 33 9 341 352 352 14 342 360 332 290 317 51 69 86 103 108 123 122 124 117 123 123 116
251 278 256 219 217 156 193 231 196 201 169 168 162 156 150 153 165 139 122 136 168 255 346 62 42 48 311 342 341 355 358 351 6 13 12 30 73 60 48 83 105 109 112 110 125 116 125 121 120
229 246 263 267 230 145 213 215 198 201 189 159 160 154 159 162 185 161 115 132 139 324 16 46 100 358 25 348 331 344 339 325 352 19 18 45 85 122 98 105 94 99 104 120 119 116 124 116 124
246 258 271 306 227 154 207 242 194 193 204 172 163 166 162 158 179 146 138 128 104 92 261 45 93 25 326 300 275 223 308 313 307 359 43 35 100 99 103 119 117 104 110 107 108 122 119 123 139
255 242 261 223 94 318 134 295 182 215 105 149 169 159 155 166 177 145 148 162 128 131 104 109 128 176 26 6 35 33 14 354 5 23 31 28 88 101 48 91 116 112 109 95 112 116 123 101 105
247 234 251 214 143 209 151 256 290 199 169 164 170 170 171 170 171 145 157 163 168 172 185 96 99 160 244 57 64 62 76 74 337 60 66 46 66 71 77 95 128 110 126 111 106 123 129 135 160
231 220 232 183 169 153 234 91 266 128 184 175 185 182 177 179 169 156 165 170 205 155 171 146 106 59 69 71 110 87 70 14 42 49 70 78 103 151 235 153 126 109 116 135 144 145 139 148 127
209 189 36 56 89 18 239 165 265 189 201 171 190 178 176 177 176 156 172 169 194 162 157 176 124 32 50 71 81 114 98 86 55 46 42 49 73 91 98 100 140 155 135 141 148 167 151 130 95
99 75 303 340 356 227 236 117 245 213 192 180 179 179 176 175 163 153 168 177 187 189 180 182 136 95 89 77 82 93 96 93 92 79 68 58 48 70 72 66 92 137 132 138 136 151 147 165 138
177 152 160 206 202 264 26 269 268 284 196 177 178 168 163 168 161 161 177 176 188 202 183 178 156 146 111 107 90 85 90 84 72 79 75 59 62 81 112 75 78 91 86 106 135 143 134 121 132
207 162 190 156 199 101 246 292 341 233 107 134 152 159 173 170 168 170 177 182 179 200 183 169 159 154 133 127 116 95 96 89 91 75 58 58 48 64 73 105 103 90 79 86 89 97 102 115 113
174 174 107 16 190 248 274 243 231 238 160 148 163 177 174 169 169 172 172 186 184 185 164 165 166 156 160 138 127 120 114 105 92 86 73 67 57 64 70 66 68 69 68 64 78 80 76 86 70
94 81 70 112 140 186 246 258 213 197 173 171 181 184 173 175 176 174 173 184 176 178 159 169 165 152 158 148 138 126 122 114 107 103 99 82 76 74 69 81 79 75 66 59 79 76 80 81 79
128 156 122 115 302 305 206 266 250 220 161 171 180 180 181 175 172 172 171 171 167 184 148 167 178 163 167 163 146 137 132 123 110 107 119 124 92 74 94 90 86 77 76 72 78 78 75 88 81